Flag for Russia Weather past 2 weeks in Sochi, Russia

Now
57 °F

More clouds than sun.


Feels Like: 54 °F
Forecast: 47 / 52 °F
Wind: 13 mph from Southeast

Location: Adler

Current Time: Feb 28, 2015 at 10:15:06 AM

Latest Report: Feb 28, 2015 at 9:30 AM


Visibility: N/A

Pressure: 29.83 "Hg

Humidity: 44%

Dew point: 36 °F

Location of SochiLocation

Historic Weather in Sochi — Graph

°F

Sochi temperature yesterday

Maximum temperature yesterday: 63 °F (at 11:00 AM)
Minimum temperature yesterday: 43 °F (at 3:00 AM)
Average temperature yesterday: 53 °F

Past Weeks' High & Low Weather Summary

 TemperatureHumidityPressure
High63 °F (Feb 24, 12:30 PM)93% (Feb 13, 11:30 PM)30.30 "Hg (Feb 13, 11:30 PM)
Low30 °F (Feb 18, 5:00 AM)25% (Feb 24, 2:00 PM)29.80 "Hg (Feb 28, 3:30 AM)
Average45 °F69%30.08 "Hg
* Reported Feb 13 9:00 AM — Feb 28 9:00 AM, Sochi, Weather by CustomWeather, © 2015

Note: Actual official high and low records may vary slightly from our data, if they occured in-between our weather recording intervals... More about our weather records

Advertising

Sochi weather history for previous 24 hours

 ConditionsComfort  
Time TempWeatherWind HumidityBarometerVisibility
9:00 AM
Sat, Feb 28
57 °FMore clouds than sun.13 mph36%29.83 "HgN/A
8:30 AM52 °FMostly cloudy.8 mph47%29.83 "HgN/A
8:00 AM52 °FMostly cloudy.10 mph47%29.83 "HgN/A
7:30 AM50 °FPassing clouds.8 mph50%29.83 "HgN/A
6:30 AM48 °FPassing clouds.8 mph50%29.83 "HgN/A
6:00 AM48 °FPassing clouds.10 mph50%29.83 "HgN/A
5:30 AM50 °FPassing clouds.10 mph47%29.80 "HgN/A
5:00 AM48 °FPassing clouds.8 mph50%29.80 "HgN/A
4:30 AM46 °FPassing clouds.10 mph57%29.80 "HgN/A
4:00 AM48 °FPassing clouds.13 mph54%29.80 "HgN/A
3:30 AM46 °FPassing clouds.13 mph57%29.80 "HgN/A
3:00 AM46 °FPassing clouds.10 mph62%29.83 "HgN/A
2:30 AM46 °FPassing clouds.3 mph62%29.83 "HgN/A
2:00 AM46 °FPassing clouds.No wind62%29.83 "HgN/A
1:30 AM48 °FPassing clouds.1 mph54%29.83 "HgN/A
1:00 AM48 °FPassing clouds.3 mph58%29.83 "HgN/A
12:30 AM48 °FPassing clouds.3 mph58%29.83 "HgN/A
12:00 AM48 °FPassing clouds.No wind58%29.83 "HgN/A
11:30 PM
Fri, Feb 27
50 °FPassing clouds.8 mph58%29.83 "HgN/A
11:00 PM50 °FPassing clouds.8 mph58%29.86 "HgN/A
10:30 PM46 °FPassing clouds.No wind71%29.86 "HgN/A
10:00 PM48 °FPassing clouds.No wind66%29.89 "HgN/A
9:30 PM50 °FPassing clouds.1 mph62%29.89 "HgN/A
9:00 PM50 °FPassing clouds.No wind62%29.89 "HgN/A
8:30 PM52 °FPassing clouds.3 mph62%29.89 "HgN/A
8:00 PM55 °FPassing clouds.6 mph55%29.89 "HgN/A
7:30 PM55 °FPassing clouds.6 mph55%29.92 "HgN/A
7:00 PM55 °FPartly sunny.3 mph55%29.95 "HgN/A
6:30 PM54 °FOvercast.3 mph58%29.95 "HgN/A
6:00 PM57 °FOvercast.3 mph48%29.95 "HgN/A
5:30 PM59 °FOvercast.1 mph45%29.95 "HgN/A
5:00 PM59 °FOvercast.10 mph42%29.95 "HgN/A
4:30 PM61 °FOvercast.10 mph39%29.98 "HgN/A
4:00 PM61 °FOvercast.8 mph36%30.01 "HgN/A
3:30 PM61 °FOvercast.8 mph36%30.01 "HgN/A
3:00 PM61 °FOvercast.6 mph36%30.04 "HgN/A
2:30 PM61 °FPartly sunny.8 mph36%30.04 "HgN/A
2:00 PM63 °FPartly sunny.6 mph34%30.04 "HgN/A
1:30 PM63 °FPartly sunny.6 mph34%30.07 "HgN/A
1:00 PM63 °FPartly sunny.8 mph32%30.09 "HgN/A
12:30 PM63 °FPartly sunny.8 mph34%30.09 "HgN/A
12:00 PM63 °FPartly sunny.6 mph34%30.12 "HgN/A
11:30 AM63 °FPartly sunny.6 mph32%30.15 "HgN/A
11:00 AM63 °FPartly sunny.3 mph32%30.15 "HgN/A
10:30 AM61 °FPartly sunny.1 mph39%30.15 "HgN/A
10:00 AM57 °FOvercast.3 mph44%30.18 "HgN/A
Weather by CustomWeather, © 2015

See weather overviewHow to use our weather pages